Simultaneous Nadir Overpasses (SNOs) Predictions

Prediction of SNOs between AQUA and METOP-C Satellite Orbit:

Table of predicted SNOs for the next 14.0 days since TLE Epoch: 12/31/2021
Index Date (AQUA) Time (AQUA) Lat,Lon (AQUA) SZA (AQUA ) Date (METOP-C) Time (METOP-C) Lat,Lon (METOP-C) SZA (METOP-C ) Distance(km) Time Diff (sec)
1 01/01/2022 12:50:53 -73.76, 161.73 83.27 01/01/2022 12:50:25 -73.76, 161.79 83.26 2.07 28
2 01/01/2022 13:40:21 73.79, -30.71 96.77 01/01/2022 13:41:05 73.80, -30.79 96.78 2.74 44
3 01/04/2022 08:25:08 -73.76,-131.83 83.53 01/04/2022 08:24:47 -73.78,-131.77 83.51 2.96 21
4 01/04/2022 09:14:36 73.80, 35.72 96.52 01/04/2022 09:15:27 73.81, 35.64 96.53 3.00 51
5 01/07/2022 03:09:48 73.25, 128.06 95.62 01/07/2022 03:08:40 73.23, 126.06 95.68 64.09 68
6 01/07/2022 03:59:24 -73.77, -65.42 83.83 01/07/2022 03:59:10 -73.79, -65.34 83.81 3.19 14
7 01/07/2022 04:48:52 73.82, 102.12 96.22 01/07/2022 04:49:50 73.81, 102.05 96.21 2.25 58
8 01/09/2022 22:44:09 73.54,-166.12 95.56 01/09/2022 22:42:58 73.48,-166.97 95.54 27.78 71
9 01/09/2022 23:33:39 -73.75, 1.06 84.23 01/09/2022 23:33:34 -73.75, 0.97 84.23 3.03 5
10 01/10/2022 00:23:08 73.85, 168.48 95.88 01/10/2022 00:24:12 73.86, 168.57 95.88 2.85 64
11 01/12/2022 18:18:27 73.70,-100.02 95.29 01/12/2022 18:17:16 73.72,-100.00 95.33 2.57 71
12 01/12/2022 19:07:55 -73.80, 67.40 84.61 01/12/2022 19:07:56 -73.80, 67.50 84.61 3.12 1



Historial Predications of SNOs between AQUA and METOP-C
